timestamp,wind_dir_avg,wind_spd_avg,wind_spd_max_dir,wind_spd_gust,battery_voltage,lat,long
2021-02-01 00:04:01+00:00,355.0,10.94,351.0,12.75,12.49,47.59359,-54.27349
2021-02-01 00:14:01+00:00,353.0,10.98,353.0,12.54,12.49,47.59359,-54.27349
2021-02-01 00:24:01+00:00,353.0,11.52,348.0,14.19,12.49,47.59359,-54.27349
2021-02-01 00:34:01+00:00,350.0,9.15,353.0,10.2,12.49,47.59359,-54.27349
2021-02-01 00:44:01+00:00,345.0,9.46,343.0,10.68,12.49,47.59359,-54.27349
2021-02-01 00:54:01+00:00,347.0,8.32,345.0,9.42,12.49,47.59359,-54.27349
2021-02-01 01:04:01+00:00,348.0,8.77,349.0,9.93,12.49,47.59359,-54.27349
2021-02-01 01:14:01+00:00,0.0,9.35,9.0,11.65,12.41,47.59359,-54.27349
2021-02-01 01:24:01+00:00,353.0,9.45,0.0,10.73,12.41,47.59359,-54.27349
2021-02-01 01:34:01+00:00,342.0,8.5,342.0,10.18,12.41,47.59359,-54.27349
2021-02-01 01:44:01+00:00,350.0,10.57,347.0,11.33,12.41,47.59359,-54.27349
2021-02-01 01:54:01+00:00,352.0,8.6,353.0,9.45,12.41,47.59359,-54.27349
2021-02-01 02:04:01+00:00,350.0,8.03,350.0,8.99,12.41,47.59359,-54.27349
2021-02-01 02:14:01+00:00,357.0,8.5,1.0,10.04,12.41,47.59359,-54.27349
2021-02-01 02:24:01+00:00,341.0,8.89,345.0,10.37,12.41,47.59359,-54.27349
2021-02-01 02:34:01+00:00,344.0,9.14,351.0,10.75,12.41,47.59359,-54.27349
2021-02-01 02:44:01+00:00,332.0,8.68,328.0,10.35,12.41,47.59359,-54.27349
2021-02-01 02:54:01+00:00,338.0,7.13,342.0,8.45,12.41,47.59359,-54.27349
2021-02-01 03:04:01+00:00,332.0,7.06,341.0,7.99,12.41,47.59359,-54.27349
2021-02-01 03:14:01+00:00,345.0,8.88,348.0,10.37,12.41,47.59359,-54.27349
2021-02-01 03:24:01+00:00,337.0,8.98,339.0,10.33,12.41,47.59359,-54.27349
2021-02-01 03:34:01+00:00,335.0,8.2,342.0,9.5,12.41,47.59359,-54.27349
2021-02-01 03:44:01+00:00,350.0,11.64,348.0,13.39,12.41,47.59359,-54.27349
2021-02-01 03:54:01+00:00,342.0,8.81,346.0,10.74,12.41,47.59359,-54.27349
2021-02-01 04:04:01+00:00,340.0,10.17,337.0,11.29,12.41,47.59359,-54.27349
2021-02-01 04:14:01+00:00,343.0,10.81,346.0,12.32,12.41,47.59359,-54.27349
2021-02-01 04:24:01+00:00,334.0,9.2,334.0,11.07,12.41,47.59359,-54.27349
2021-02-01 04:34:01+00:00,330.0,7.65,327.0,8.6,12.41,47.59359,-54.27349
2021-02-01 04:44:01+00:00,339.0,8.87,347.0,11.63,12.41,47.59359,-54.27349
2021-02-01 04:54:01+00:00,336.0,8.39,339.0,9.32,12.41,47.59359,-54.27349
2021-02-01 05:04:01+00:00,343.0,9.38,343.0,10.81,12.41,47.59359,-54.27349
2021-02-01 05:14:01+00:00,346.0,7.96,342.0,9.35,12.41,47.59359,-54.27349
2021-02-01 05:24:01+00:00,340.0,10.15,342.0,11.67,12.41,47.59359,-54.27349
2021-02-01 05:34:01+00:00,349.0,9.73,356.0,10.86,12.41,47.59359,-54.27349
2021-02-01 05:44:01+00:00,338.0,8.98,334.0,10.31,12.41,47.59359,-54.27349
2021-02-01 05:54:01+00:00,345.0,8.23,351.0,9.82,12.41,47.59359,-54.27349
2021-02-01 06:04:01+00:00,341.0,8.22,337.0,9.39,12.41,47.59359,-54.27349
2021-02-01 06:14:01+00:00,346.0,8.14,343.0,9.19,12.41,47.59359,-54.27349
2021-02-01 06:24:01+00:00,336.0,8.0,338.0,8.78,12.41,47.59359,-54.27349
2021-02-01 06:34:01+00:00,334.0,6.94,333.0,7.94,12.41,47.59359,-54.27349
2021-02-01 06:44:01+00:00,326.0,6.9,323.0,7.91,12.41,47.59359,-54.27349
2021-02-01 06:54:01+00:00,325.0,7.55,331.0,8.79,12.41,47.59359,-54.27349
2021-02-01 07:04:01+00:00,320.0,7.1,315.0,9.05,12.41,47.59359,-54.27349
2021-02-01 07:14:01+00:00,323.0,7.72,320.0,8.88,12.33,47.59359,-54.27349
2021-02-01 07:24:01+00:00,325.0,8.14,324.0,9.16,12.33,47.59359,-54.27349
2021-02-01 07:34:01+00:00,327.0,8.3,324.0,9.98,12.33,47.59359,-54.27349
2021-02-01 07:44:01+00:00,325.0,8.59,330.0,9.37,12.33,47.59359,-54.27349
2021-02-01 07:54:01+00:00,323.0,8.06,327.0,8.97,12.33,47.59359,-54.27349
2021-02-01 08:04:01+00:00,329.0,8.44,328.0,10.48,12.33,47.59359,-54.27349
2021-02-01 08:14:01+00:00,329.0,8.61,324.0,10.04,12.33,47.59359,-54.27349
2021-02-01 08:24:01+00:00,330.0,9.22,324.0,10.52,12.33,47.59359,-54.27349
2021-02-01 08:34:01+00:00,329.0,9.83,335.0,11.26,12.33,47.59359,-54.27349
2021-02-01 08:44:01+00:00,332.0,9.7,333.0,10.83,12.33,47.59359,-54.27349
2021-02-01 08:54:01+00:00,329.0,8.32,331.0,10.24,12.33,47.59359,-54.27349
2021-02-01 09:04:01+00:00,327.0,10.0,336.0,11.17,12.33,47.59359,-54.27349
2021-02-01 09:14:01+00:00,326.0,8.34,333.0,9.65,12.25,47.59359,-54.27349
2021-02-01 09:24:01+00:00,330.0,9.93,329.0,11.53,12.25,47.59359,-54.27349
2021-02-01 09:34:01+00:00,326.0,8.34,330.0,9.82,12.25,47.59359,-54.27349
2021-02-01 09:44:01+00:00,323.0,8.03,321.0,9.59,12.25,47.59359,-54.27349
2021-02-01 09:54:01+00:00,320.0,8.92,314.0,10.18,12.25,47.59359,-54.27349
2021-02-01 10:04:01+00:00,324.0,8.92,323.0,10.46,12.25,47.59359,-54.27349
2021-02-01 10:14:01+00:00,322.0,7.41,322.0,8.46,12.25,47.59359,-54.27349
2021-02-01 10:24:01+00:00,325.0,8.74,322.0,10.09,12.25,47.59359,-54.27349
2021-02-01 10:34:01+00:00,329.0,8.77,339.0,10.25,12.25,47.59359,-54.27349
2021-02-01 10:44:01+00:00,323.0,9.56,321.0,10.94,12.25,47.59359,-54.27349
2021-02-01 10:54:01+00:00,324.0,9.34,325.0,10.7,12.25,47.59359,-54.27349
2021-02-01 11:04:01+00:00,321.0,10.02,315.0,11.83,12.25,47.59359,-54.27349
2021-02-01 11:14:01+00:00,323.0,8.98,322.0,10.14,12.25,47.59359,-54.27349
2021-02-01 11:24:01+00:00,322.0,7.72,312.0,8.69,12.25,47.59359,-54.27349
2021-02-01 11:34:01+00:00,324.0,8.27,323.0,10.07,12.25,47.59359,-54.27349
2021-02-01 11:44:01+00:00,321.0,7.76,327.0,8.69,12.25,47.59359,-54.27349
2021-02-01 11:54:01+00:00,322.0,8.63,317.0,10.42,12.25,47.59359,-54.27349
2021-02-01 12:04:01+00:00,324.0,8.59,333.0,9.61,12.25,47.59359,-54.27349
2021-02-01 12:14:01+00:00,321.0,9.4,323.0,10.97,12.97,47.59359,-54.27349
2021-02-01 12:24:01+00:00,318.0,8.13,309.0,9.26,12.97,47.59359,-54.27349
2021-02-01 12:34:01+00:00,327.0,8.93,329.0,9.99,12.97,47.59359,-54.27349
2021-02-01 12:44:01+00:00,320.0,8.56,324.0,9.6,12.97,47.59359,-54.27349
2021-02-01 12:54:01+00:00,323.0,8.72,324.0,11.28,12.97,47.59359,-54.27349
2021-02-01 13:04:01+00:00,322.0,10.46,322.0,12.64,12.97,47.59359,-54.27349
2021-02-01 13:14:01+00:00,331.0,10.04,328.0,12.36,13.76,47.59359,-54.27349
2021-02-01 13:24:01+00:00,329.0,11.13,330.0,12.84,13.76,47.59359,-54.27349
2021-02-01 13:34:01+00:00,327.0,9.57,334.0,11.8,13.76,47.59359,-54.27349
2021-02-01 13:44:01+00:00,321.0,9.49,323.0,10.64,13.76,47.59359,-54.27349
2021-02-01 13:54:01+00:00,332.0,11.18,333.0,13.61,13.76,47.59359,-54.27349
2021-02-01 14:04:01+00:00,329.0,10.39,324.0,11.66,13.76,47.59359,-54.27349
2021-02-01 14:14:01+00:00,338.0,10.47,336.0,11.7,13.6,47.59359,-54.27349
2021-02-01 14:24:01+00:00,332.0,8.3,329.0,9.45,13.6,47.59359,-54.27349
2021-02-01 14:34:01+00:00,339.0,9.17,340.0,10.11,13.6,47.59359,-54.27349
2021-02-01 14:44:01+00:00,336.0,8.74,334.0,9.89,13.6,47.59359,-54.27349
2021-02-01 14:54:01+00:00,331.0,7.63,332.0,8.38,13.6,47.59359,-54.27349
2021-02-01 15:04:01+00:00,326.0,9.3,324.0,11.03,13.6,47.59359,-54.27349
2021-02-01 15:14:01+00:00,335.0,8.59,339.0,9.61,14.08,47.59359,-54.27349
2021-02-01 15:24:01+00:00,329.0,9.09,330.0,10.35,14.08,47.59359,-54.27349
2021-02-01 15:34:01+00:00,338.0,7.99,336.0,9.25,14.08,47.59359,-54.27349
2021-02-01 15:44:01+00:00,338.0,8.36,338.0,9.66,14.08,47.59359,-54.27349
2021-02-01 15:54:01+00:00,345.0,8.9,347.0,10.49,14.08,47.59359,-54.27349
2021-02-01 16:04:01+00:00,334.0,8.75,335.0,10.61,14.08,47.59359,-54.27349
2021-02-01 16:14:01+00:00,326.0,8.93,328.0,10.08,13.68,47.59359,-54.27349
2021-02-01 16:24:01+00:00,331.0,8.69,346.0,10.77,13.68,47.59359,-54.27349
2021-02-01 16:34:01+00:00,328.0,8.9,333.0,10.03,13.68,47.59359,-54.27349
2021-02-01 16:44:01+00:00,327.0,8.68,328.0,9.88,13.68,47.59359,-54.27349
2021-02-01 16:54:01+00:00,327.0,9.13,326.0,10.61,13.68,47.59359,-54.27349
2021-02-01 17:04:01+00:00,328.0,8.84,330.0,10.31,13.68,47.59359,-54.27349
2021-02-01 17:14:01+00:00,328.0,9.28,328.0,10.89,13.76,47.59359,-54.27349
2021-02-01 17:24:01+00:00,323.0,8.21,323.0,9.42,13.76,47.59359,-54.27349
2021-02-01 17:34:01+00:00,328.0,8.5,327.0,10.1,13.76,47.59359,-54.27349
2021-02-01 17:44:01+00:00,331.0,8.84,330.0,10.89,13.76,47.59359,-54.27349
2021-02-01 17:54:01+00:00,348.0,7.17,349.0,8.1,13.76,47.59359,-54.27349
2021-02-01 18:04:01+00:00,343.0,7.59,346.0,8.36,13.76,47.59359,-54.27349
2021-02-01 18:14:01+00:00,341.0,6.65,346.0,8.06,13.6,47.59359,-54.27349
2021-02-01 18:24:01+00:00,356.0,9.99,0.0,11.04,13.6,47.59359,-54.27349
2021-02-01 18:34:01+00:00,337.0,8.1,347.0,10.42,13.6,47.59359,-54.27349
2021-02-01 18:44:01+00:00,350.0,8.01,345.0,11.0,13.6,47.59359,-54.27349
2021-02-01 18:54:01+00:00,354.0,8.6,353.0,10.17,13.6,47.59359,-54.27349
2021-02-01 19:04:01+00:00,3.0,9.53,5.0,11.18,13.6,47.59359,-54.27349
2021-02-01 19:14:01+00:00,354.0,9.54,357.0,11.0,13.29,47.59359,-54.27349
2021-02-01 19:24:01+00:00,358.0,11.41,1.0,13.07,13.29,47.59359,-54.27349
2021-02-01 19:34:01+00:00,6.0,8.97,4.0,10.1,13.29,47.59359,-54.27349
2021-02-01 19:44:01+00:00,353.0,9.0,350.0,10.45,13.29,47.59359,-54.27349
2021-02-01 19:54:01+00:00,337.0,8.62,336.0,10.11,13.29,47.59359,-54.27349
2021-02-01 20:04:01+00:00,355.0,7.63,354.0,8.9,13.29,47.59359,-54.27349
2021-02-01 20:14:01+00:00,351.0,8.3,351.0,9.73,12.81,47.59359,-54.27349
2021-02-01 20:24:01+00:00,348.0,7.92,351.0,9.14,12.81,47.59359,-54.27349
2021-02-01 20:34:01+00:00,12.0,9.54,16.0,10.69,12.81,47.59359,-54.27349
2021-02-01 20:44:01+00:00,357.0,8.3,357.0,10.88,12.81,47.59359,-54.27349
2021-02-01 20:54:01+00:00,2.0,9.59,7.0,10.53,12.81,47.59359,-54.27349
2021-02-01 21:04:01+00:00,6.0,8.82,11.0,9.95,12.81,47.59359,-54.27349
2021-02-01 21:14:01+00:00,4.0,8.23,11.0,9.67,12.57,47.59359,-54.27349
2021-02-01 21:24:01+00:00,359.0,7.79,358.0,8.77,12.57,47.59359,-54.27349
2021-02-01 21:34:01+00:00,348.0,7.41,344.0,8.38,12.57,47.59359,-54.27349
2021-02-01 21:44:01+00:00,344.0,9.8,347.0,11.7,12.57,47.59359,-54.27349
2021-02-01 21:54:01+00:00,347.0,8.8,345.0,10.05,12.57,47.59359,-54.27349
2021-02-01 22:04:01+00:00,0.0,9.13,5.0,11.15,12.57,47.59359,-54.27349
2021-02-01 22:14:01+00:00,338.0,9.33,339.0,10.77,12.49,47.59359,-54.27349
2021-02-01 22:24:01+00:00,347.0,8.17,338.0,9.81,12.49,47.59359,-54.27349
2021-02-01 22:34:01+00:00,345.0,9.85,349.0,10.97,12.49,47.59359,-54.27349
2021-02-01 22:44:01+00:00,340.0,8.56,343.0,10.67,12.49,47.59359,-54.27349
2021-02-01 22:54:01+00:00,342.0,8.58,341.0,9.9,12.49,47.59359,-54.27349
2021-02-01 23:04:01+00:00,341.0,7.96,339.0,9.19,12.49,47.59359,-54.27349
2021-02-01 23:14:01+00:00,340.0,7.33,341.0,8.48,12.49,47.59359,-54.27349
2021-02-01 23:24:01+00:00,333.0,7.13,337.0,8.39,12.49,47.59359,-54.27349
2021-02-01 23:34:01+00:00,342.0,8.61,343.0,9.49,12.49,47.59359,-54.27349
2021-02-01 23:44:01+00:00,336.0,6.81,345.0,7.64,12.49,47.59359,-54.27349
2021-02-01 23:54:01+00:00,342.0,7.36,341.0,8.07,12.49,47.59359,-54.27349
